Showing default

GALAXY 32, 54244

Orbit data source: Space-Track

GALAXY 32, 54244 is a payload satellite owned by Intelsat SA (US) (US) in GEO that was launched on Sat, 12 Nov 2022 UTC via an FALCON 9 launch vehicle from the Air Force Eastern Test Range (AFETR). Payload-class satellites include a variety of spacecraft equipped with specific instruments for various scientific and technological missions. These include communications satellites like Starlink; space stations such as the ISS; scientific satellites like the Hubble; Earth observation satellites from companies like Planet Labs, Umbra, and HawkEye 360; GPS; miniature CubeSats for education and research; and military/defense satellites.

Loading next visibility...
Identifier
54244, 2022-153B
Orbit
GEO
Last TLE update
1 day ago
Origin
Manufacturer
Maxar Space Sol
Mission
Operational Commercial Communications
Bus & Motor
SSL-1300, R-4D
Mass
3,300 kg wet, ~2,000 kg dry
Launch date (UTC)
2022-11-12 (3 years ago)
Launch vehicle
FALCON 9
Launch site
Air Force Eastern Test Range (AFETR)
Object type
Payload
Rocket body
Debris
Shape & HBR
Box + 2 Pan, 27 m
Radar Cross Section
36.085 m², Large (>1 m²)

Expand to show TLE details & history

TLE from 1 day ago
0 GALAXY 32
1 54244U 22153B   25189.33075459 -.00000158  00000-0  00000-0 0  9998
2 54244   0.0099  38.8840 0001920  14.8930 260.8204  1.00271542  9695
Epoch: 2025-07-08T07:56Z
TLE epoch observation values (Epoch: 2025-07-08T07:56:17.196Z)
Latitude
-0.0333°
Longitude
-91.02169°
Altitude
35,787.491 km
Speed
3.075 km/s
True Right ascension
20h 58m 18s
True Declination
0° 01' 60"
Sunlit
Object was in daylight at epoch
Visualization orbit readout
Latitude
-0.01245°
Longitude
-31.99117°
Altitude
35,780.057 km
Speed
3.075 km/s
Apparent Right ascension
01h 01m 44s
Apparent Declination
-6° 13' 17"
Sunlit
Object is in daylight
Visualization observer readout
Local Sidereal Time
23:58:00
Azimuth
158.606° S
Elevation
41.578°
Doppler factor
1
Orbital elements
Apogee altitude
35,795.829 km
Perigee altitude
35,779.638 km
Semi-major axis
42,165.87 km
Eccentricity
0.00019
Inclination
0.0099°
RAAN
38.884°
Arg. of periapsis
14.893°
True anomaly
Unknown
Mean anomaly
260.8204°
Eccentric anomaly
Unknown
Mean motion
0.25067 °/min
Orbital period
1,436.15 mins
BSTAR
0
Loading historical data...
54244 neighbors
Loading maneuver chart data...
Loading SW <> Apogee altitude chart data...
Loading historical data...
Loading historical data...
Loading historical data...
Loading historical data...
Loading historical data...
Loading historical data...
Loading historical data...
Other satellites on launch #153 in the year 2022 (2022-11-12 UTC)

GALAXY 32 Visibility forecast

Observer location: undefined°, undefined°

Span
Click to sort rows by Start time (UTC) header in descending order
Start Az.
Max El. time (UTC)
Max El. Az.
Max El.
End time (UTC)
End Az.
1440 mins2025-07-09 11:47:48.187Z158.614° S2025-07-09 20:06:48.187Z158.541° S33.585°2025-07-10 11:47:48.187Z158.615° S
|